Roseau, MN

1:24 AM CDT on June 26, 2017 (GMT -0500)
Roseau Municipal-Billberg

Weather History for KROX - May, 2013

Change the Weather History Date:

Thursday, May 30, 2013

  Actual Average Record
Temperature  
Mean Temperature 62 °F -  
Max Temperature 64 °F 70 °F 89 °F (1986)
Min Temperature 59 °F 43 °F 28 °F (1964)
Degree Days  
Heating Degree Days 4    
Growing Degree Days 12 (Base 50)    
Moisture  
Dew Point 56 °F    
Average Humidity 81    
Maximum Humidity 88    
Minimum Humidity 77    
Precipitation  
Precipitation 0.47 in - - ()
Sea Level Pressure  
Sea Level Pressure 29.58 in    
Wind  
Wind Speed 12 mph (ENE)    
Max Wind Speed 23 mph    
Max Gust Speed 28 mph    
Visibility 9 miles    
Events Rain    
Averages and records for this station are not official NWS values.
T = Trace of Precipitation, MM = Missing Value Source: NWS Daily Summary

Daily Weather History Graph

Daily Weather History Graph

Search for Another Location

Airport or City:

Trip Planner

Search our weather history database for the weather conditions in past years. The results will help you decide how hot, cold, wet, or windy it might be!

Date:

Astronomy

May. 30, 2013 Rise Set
Actual Time 5:25 AM CDT 9:16 PM CDT
Civil Twilight 4:44 AM CDT 9:57 PM CDT
Nautical Twilight 3:48 AM CDT 10:53 PM CDT
Astronomical Twilight 2:22 AM CDT 12:21 AM CDT
Moon 12:59 AM CDT (5/30) 11:55 AM CDT (5/30)
Length of Visible Light 17h 12m
Length of Day
15h 51m
Waning Gibbous, 62% of the Moon is Illuminated
May 30
Waning Gibbous
May 31
Last Quarter
Jun 8
New
Jun 16
First Quarter
Jun 23
Full

Hourly Weather History & Observations

Time (CDT) Temp. Dew Point Humidity Pressure Visibility Wind Dir Wind Speed Gust Speed Precip Events Conditions
12:14 AM 64.4 °F 57.2 °F 77% 29.69 in 10.0 mi NNE 4.6 mph - N/A   Clear
12:34 AM 62.6 °F 57.2 °F 82% 29.69 in 10.0 mi East 4.6 mph - N/A   Clear
12:54 AM 64.4 °F 57.2 °F 77% 29.70 in 10.0 mi East 4.6 mph - N/A   Clear
1:14 AM 64.4 °F 57.2 °F 77% 29.70 in 10.0 mi East 4.6 mph - N/A   Scattered Clouds
1:35 AM 62.6 °F 57.2 °F 82% 29.68 in 10.0 mi NE 5.8 mph - N/A   Clear
1:54 AM 62.6 °F 57.2 °F 82% 29.68 in 10.0 mi ENE 4.6 mph - N/A   Scattered Clouds
2:14 AM 62.6 °F 55.4 °F 77% 29.68 in 10.0 mi ENE 4.6 mph - N/A   Scattered Clouds
2:35 AM 62.6 °F 55.4 °F 77% 29.67 in 10.0 mi NE 5.8 mph - N/A   Scattered Clouds
2:54 AM 62.6 °F 55.4 °F 77% 29.66 in 10.0 mi NE 8.1 mph - N/A   Clear
3:14 AM 60.8 °F 55.4 °F 82% 29.65 in 10.0 mi NE 10.4 mph - N/A   Clear
3:35 AM 60.8 °F 55.4 °F 82% 29.64 in 10.0 mi ENE 9.2 mph - N/A   Clear
3:54 AM 62.6 °F 55.4 °F 77% 29.64 in 10.0 mi East 9.2 mph - N/A   Clear
4:14 AM 60.8 °F 55.4 °F 82% 29.63 in 10.0 mi East 9.2 mph - N/A   Clear
4:35 AM 60.8 °F 53.6 °F 77% 29.62 in 10.0 mi East 6.9 mph - N/A   Clear
4:54 AM 60.8 °F 55.4 °F 82% 29.61 in 10.0 mi East 10.4 mph - N/A Rain Light Rain
5:14 AM 60.8 °F 55.4 °F 82% 29.62 in 10.0 mi ENE 8.1 mph - N/A   Scattered Clouds
5:34 AM 60.8 °F 55.4 °F 82% 29.62 in 10.0 mi East 10.4 mph - N/A   Scattered Clouds
5:55 AM 62.6 °F 55.4 °F 77% 29.63 in 10.0 mi East 12.7 mph 18.4 mph N/A   Mostly Cloudy
6:14 AM 62.6 °F 55.4 °F 77% 29.62 in 10.0 mi East 10.4 mph - N/A   Mostly Cloudy
6:34 AM 60.8 °F 55.4 °F 82% 29.62 in 10.0 mi ENE 11.5 mph - 0.01 in Rain Light Rain
6:55 AM 60.8 °F 55.4 °F 82% 29.62 in 5.0 mi ENE 11.5 mph - 0.12 in Rain Heavy Rain
7:14 AM 60.8 °F 53.6 °F 77% 29.62 in 5.0 mi ENE 13.8 mph - 0.07 in Rain Light Rain
7:34 AM 60.8 °F 53.6 °F 77% 29.61 in 10.0 mi ENE 15.0 mph - 0.10 in Rain Light Rain
7:55 AM 60.8 °F 55.4 °F 82% 29.61 in 10.0 mi ENE 13.8 mph - 0.10 in   Mostly Cloudy
8:14 AM 60.8 °F 55.4 °F 82% 29.61 in 10.0 mi ENE 15.0 mph - N/A   Overcast
8:35 AM 60.8 °F 55.4 °F 82% 29.60 in 7.0 mi ENE 15.0 mph - N/A   Overcast
8:54 AM 60.8 °F 55.4 °F 82% 29.61 in 7.0 mi East 13.8 mph - N/A Rain Light Rain
9:14 AM 60.8 °F 55.4 °F 82% 29.60 in 5.0 mi ENE 16.1 mph - N/A Rain Light Rain
9:34 AM 60.8 °F 55.4 °F 82% 29.60 in 10.0 mi East 17.3 mph 20.7 mph 0.01 in   Light Drizzle
9:54 AM 60.8 °F 55.4 °F 82% 29.60 in 5.0 mi East 15.0 mph - 0.07 in Rain Light Rain
10:14 AM 60.8 °F 55.4 °F 82% 29.59 in 10.0 mi East 16.1 mph - 0.01 in   Overcast
10:34 AM 60.8 °F 55.4 °F 82% 29.57 in 7.0 mi ENE 18.4 mph 24.2 mph 0.01 in   Overcast
10:54 AM 60.8 °F 55.4 °F 82% 29.58 in 7.0 mi East 17.3 mph - 0.01 in   Overcast
11:14 AM 60.8 °F 55.4 °F 82% 29.58 in 7.0 mi ENE 17.3 mph - N/A   Overcast
11:34 AM 60.8 °F 55.4 °F 82% 29.58 in 7.0 mi East 16.1 mph - N/A   Overcast
11:54 AM 60.8 °F 55.4 °F 82% 29.57 in 10.0 mi ENE 18.4 mph - N/A   Overcast
12:14 PM 60.8 °F 55.4 °F 82% 29.57 in 7.0 mi ENE 17.3 mph - N/A   Overcast
12:34 PM 60.8 °F 55.4 °F 82% 29.57 in 7.0 mi East 17.3 mph - N/A Rain Light Rain
12:54 PM 60.8 °F 55.4 °F 82% 29.56 in 10.0 mi ENE 16.1 mph - 0.03 in Rain Light Rain
1:14 PM 60.8 °F 55.4 °F 82% 29.56 in 4.0 mi ENE 15.0 mph - 0.04 in Rain Light Rain
1:34 PM 60.8 °F 55.4 °F 82% 29.56 in 4.0 mi ENE 16.1 mph - 0.05 in Rain Light Rain
1:54 PM 60.8 °F 55.4 °F 82% 29.55 in 10.0 mi ENE 16.1 mph - 0.11 in Rain Light Rain
2:14 PM 62.6 °F 57.2 °F 82% 29.55 in 10.0 mi ENE 17.3 mph - 0.01 in Rain Light Rain
2:34 PM 62.6 °F 57.2 °F 82% 29.55 in 10.0 mi East 17.3 mph - 0.01 in   Overcast
2:54 PM 62.6 °F 57.2 °F 82% 29.55 in 10.0 mi ENE 20.7 mph - 0.01 in   Overcast
3:14 PM 62.6 °F 57.2 °F 82% 29.55 in 4.0 mi ENE 18.4 mph 21.9 mph 0.02 in Rain Light Rain
3:34 PM 62.6 °F 57.2 °F 82% 29.53 in 5.0 mi ENE 19.6 mph 24.2 mph 0.02 in   Haze
3:54 PM 64.4 °F 57.2 °F 77% 29.53 in 10.0 mi ENE 17.3 mph - 0.02 in   Mostly Cloudy
4:14 PM 64.4 °F 59.0 °F 83% 29.53 in 10.0 mi East 12.7 mph - N/A   Scattered Clouds
4:34 PM 64.4 °F 60.8 °F 88% 29.52 in 10.0 mi ENE 16.1 mph - N/A   Scattered Clouds
4:54 PM 64.4 °F 60.8 °F 88% 29.51 in 10.0 mi ENE 17.3 mph - N/A   Scattered Clouds
5:14 PM 64.4 °F 59.0 °F 83% 29.51 in 10.0 mi NE 17.3 mph - N/A   Scattered Clouds
5:35 PM 64.4 °F 59.0 °F 83% 29.52 in 10.0 mi ENE 20.7 mph - N/A   Scattered Clouds
5:54 PM 64.4 °F 59.0 °F 83% 29.51 in 10.0 mi ENE 19.6 mph - N/A   Scattered Clouds
6:14 PM 64.4 °F 59.0 °F 83% 29.51 in 10.0 mi ENE 23.0 mph 27.6 mph N/A   Mostly Cloudy
6:34 PM 64.4 °F 59.0 °F 83% 29.51 in 10.0 mi ENE 23.0 mph - N/A   Overcast
6:54 PM 64.4 °F 59.0 °F 83% 29.51 in 10.0 mi ENE 21.9 mph 25.3 mph N/A   Overcast
7:15 PM 64.4 °F 57.2 °F 77% 29.52 in 10.0 mi ENE 20.7 mph - N/A   Mostly Cloudy
7:34 PM 62.6 °F 57.2 °F 82% 29.52 in 10.0 mi NE 19.6 mph - N/A   Overcast
7:54 PM 62.6 °F 57.2 °F 82% 29.53 in 10.0 mi NE 20.7 mph - N/A   Overcast
8:14 PM 62.6 °F 57.2 °F 82% 29.53 in 10.0 mi NE 18.4 mph 27.6 mph N/A   Overcast
8:34 PM 60.8 °F 55.4 °F 82% 29.53 in 10.0 mi NE 18.4 mph - N/A   Overcast
8:54 PM 60.8 °F 55.4 °F 82% 29.53 in 10.0 mi ENE 21.9 mph - N/A   Overcast
9:14 PM 60.8 °F 55.4 °F 82% 29.54 in 10.0 mi ENE 21.9 mph - N/A   Overcast
9:34 PM 60.8 °F 55.4 °F 82% 29.54 in 10.0 mi ENE 19.6 mph 25.3 mph N/A   Overcast
9:54 PM 60.8 °F 55.4 °F 82% 29.55 in 10.0 mi ENE 18.4 mph - N/A   Overcast
10:14 PM 60.8 °F 55.4 °F 82% 29.55 in 7.0 mi ENE 20.7 mph 25.3 mph N/A   Overcast
10:34 PM 60.8 °F 55.4 °F 82% 29.55 in 7.0 mi NE 17.3 mph - N/A   Overcast
10:54 PM 60.8 °F 55.4 °F 82% 29.54 in 7.0 mi ENE 20.7 mph - N/A   Overcast
11:14 PM 60.8 °F 53.6 °F 77% 29.54 in 7.0 mi NE 17.3 mph 23.0 mph N/A   Overcast
11:34 PM 59.0 °F 53.6 °F 82% 29.53 in 10.0 mi ENE 19.6 mph 24.2 mph N/A   Overcast
11:54 PM 59.0 °F 53.6 °F 82% 29.53 in 7.0 mi ENE 23.0 mph - N/A   Overcast